User: anonymous
Location: Kailua
(21.4020°N, 157.7390°W)
Time: 10:57:08
(UTC-10:00)
Language:

Cosmos 2297 Rocket - Orbit

View from above orbital plane
View from above orbital plane
View from above satellite
View from above satellite

Ground track
Ground track

The orbit data is extracted from the following two-line orbital elements,

1 23405U 94077B   14236.55861498 -.00000226  00000-0 -91962-4 0  9367
2 23405 070.9830 215.8952 0000908 008.5158 132.6574 14.15108975 20134
Epoch (UTC): 24 August 2014 13:24:24
Eccentricity: 0.0000908
inclination: 70.9830°
perigee height: 841 km
apogee height: 842 km
right ascension of ascending node: 215.8952°
argument of perigee: 8.5158°
revolutions per day: 14.15108975
mean anomaly at epoch: 132.6574°
orbit number at epoch: 2013

The dashed part of the orbit path shows where the satellite is in the earth's shadow,  

DLR